,,,PA_Meas_PMT16A,,PR_Meas_QMR101_102,,RH_Meas_QMH101,,SR_Meas_QMS101,,TA_Meas_QMH101,,GenWind,,GenWind,
date,time,status,PA,status,PR,status,RH,status,SR,status,TA,status,DirAvg,status,SpdAvg,
2008-07-04, 06:58:04,INVALID - VALUE NOT AVAILABLE,0,INVALID - VALUE NOT AVAILABLE,0,INVALID - VALUE NOT AVAILABLE,0,INVALID - VALUE NOT AVAILABLE,0,INVALID - VALUE NOT AVAILABLE,0,INVALID,360,INVALID,0,
2008-07-04, 06:59:04,VALID,1006.18,VALID,0,VALID,96.1239,VALID,55.3096,VALID,23.2754,VALID,350,VALID,0.200781,
2008-07-04, 07:00:04,VALID,1006.2,VALID,0,VALID,96.162,VALID,55.7119,VALID,23.2948,VALID,350,VALID,0.188281,
2008-07-04, 07:01:04,VALID,1006.19,VALID,0,VALID,96.1697,VALID,56.3153,VALID,23.3355,VALID,350,VALID,0.466797,
2008-07-04, 07:02:04,VALID,1006.22,VALID,0,VALID,96.162,VALID,56.6169,VALID,23.355,VALID,350,VALID,0.39375,
2008-07-04, 07:03:04,VALID,1006.25,VALID,0,VALID,96.1468,VALID,56.4158,VALID,23.3744,VALID,351,VALID,0.501172,
2008-07-04, 07:04:04,VALID,1006.28,VALID,0,VALID,96.162,VALID,55.913,VALID,23.3921,VALID,352,VALID,0.524609,
2008-07-04, 07:05:04,VALID,1006.31,VALID,0,VALID,96.101,VALID,54.2034,VALID,23.3939,VALID,3,VALID,0.469531,
2008-07-04, 07:06:04,VALID,1006.35,VALID,0,VALID,96.0476,VALID,52.2927,VALID,23.3939,VALID,3,VALID,0.505078,
2008-07-04, 07:07:04,VALID,1006.39,VALID,0,VALID,96.0781,VALID,49.6781,VALID,23.4134,VALID,3,VALID,0.238672,
2008-07-04, 07:08:04,VALID,1006.41,VALID,0,VALID,96.0247,VALID,46.259,VALID,23.3921,VALID,3,VALID,0.366406,
2008-07-04, 07:09:04,VALID,1006.44,VALID,0,VALID,95.9942,VALID,43.0409,VALID,23.3921,VALID,3,VALID,0.239063,
2008-07-04, 07:10:04,VALID,1006.47,VALID,0,VALID,96.0018,VALID,40.0241,VALID,23.3921,VALID,3,VALID,0.375781,
2008-07-04, 07:11:04,VALID,1006.51,VALID,0,VALID,95.9942,VALID,37.8117,VALID,23.4116,VALID,3,VALID,0.0695312,
2008-07-04, 07:12:04,VALID,1006.5,VALID,0,VALID,95.9789,VALID,35.8004,VALID,23.4311,VALID,3,VALID,0,
2008-07-04, 07:13:04,VALID,1006.54,VALID,0,VALID,95.9789,VALID,33.7892,VALID,23.4505,VALID,3,VALID,0,
2008-07-04, 07:14:04,VALID,1006.54,VALID,0,VALID,95.9713,VALID,33.2863,VALID,23.4505,VALID,3,VALID,0,
2008-07-04, 07:15:04,VALID,1006.59,VALID,0,VALID,95.9942,VALID,33.0852,VALID,23.4912,VALID,3,VALID,0,
2008-07-04, 07:16:04,VALID,1006.62,VALID,0,VALID,96.0018,VALID,32.4818,VALID,23.5107,VALID,3,VALID,0.00234375,
2008-07-04, 07:17:04,VALID,1006.6,VALID,0,VALID,96.0171,VALID,32.3813,VALID,23.5496,VALID,17,VALID,0.342969,
2008-07-04, 07:18:04,VALID,1006.55,VALID,0,VALID,96.0247,VALID,33.7892,VALID,23.5673,VALID,17,VALID,0.462109,
2008-07-04, 07:19:04,VALID,1006.57,VALID,0,VALID,96.0247,VALID,34.292,VALID,23.5868,VALID,17,VALID,0,
2008-07-04, 07:20:04,VALID,1006.58,VALID,0,VALID,96.0018,VALID,34.6942,VALID,23.6062,VALID,17,VALID,0.0195313,
2008-07-04, 07:21:04,VALID,1006.61,VALID,0,VALID,95.9637,VALID,34.8953,VALID,23.6062,VALID,24,VALID,0.346484,
2008-07-04, 07:22:04,VALID,1006.63,VALID,0,VALID,95.9179,VALID,34.0908,VALID,23.6452,VALID,73,VALID,0.583594,
2008-07-04, 07:23:04,VALID,1006.69,VALID,0,VALID,95.9103,VALID,32.5824,VALID,23.7248,VALID,69,VALID,0.344531,
2008-07-04, 07:24:04,VALID,1006.74,VALID,0,VALID,95.8493,VALID,30.7723,VALID,23.7443,VALID,99,VALID,0.740234,
2008-07-04, 07:25:04,VALID,1006.74,VALID,0,VALID,95.8264,VALID,29.6661,VALID,23.7637,VALID,91,VALID,0.565234,
2008-07-04, 07:26:04,VALID,1006.74,VALID,0,VALID,95.7348,VALID,28.761,VALID,23.7637,VALID,76,VALID,0.804297,
2008-07-04, 07:27:04,VALID,1006.74,VALID,0,VALID,95.6814,VALID,27.9565,VALID,23.8027,VALID,73,VALID,0.362891,
2008-07-04, 07:28:04,VALID,1006.74,VALID,0,VALID,95.628,VALID,27.0514,VALID,23.8203,VALID,71,VALID,1.20781,
2008-07-04, 07:29:04,VALID,1006.97,VALID,0,VALID,95.567,VALID,26.1464,VALID,23.9195,VALID,96,VALID,0.420703,
2008-07-04, 07:30:04,VALID,1006.56,VALID,0,VALID,95.4526,VALID,25.1407,VALID,23.9389,VALID,119,VALID,0.703906,
2008-07-04, 07:31:04,VALID,1007.35,VALID,0,VALID,95.3457,VALID,24.3362,VALID,23.9779,VALID,122,VALID,0.464063,
2008-07-04, 09:05:04,VALID,1007.25,VALID,0,VALID,93.1715,VALID,132.944,VALID,23.9973,VALID,59,VALID,0.441797,
2008-07-04, 09:06:04,VALID,1007.27,VALID,0,VALID,93.2936,VALID,132.542,VALID,24.0363,VALID,33,VALID,1.00039,
2008-07-04, 09:07:04,VALID,1007.27,VALID,0,VALID,93.3394,VALID,133.045,VALID,24.0557,VALID,349,VALID,0.826172,
2008-07-04, 09:08:04,VALID,1007.29,VALID,0,VALID,93.0495,VALID,134.352,VALID,24.0363,VALID,79,VALID,1.69258,
2008-07-04, 09:09:04,VALID,1007.26,VALID,0,VALID,93.2478,VALID,136.866,VALID,24.0947,VALID,33,VALID,0.509766,
2008-07-04, 09:10:04,VALID,1007.3,VALID,0,VALID,93.3012,VALID,140.386,VALID,24.1142,VALID,49,VALID,0.740234,
2008-07-04, 09:11:04,VALID,1007.27,VALID,0,VALID,93.1181,VALID,145.213,VALID,24.1336,VALID,34,VALID,1.19687,
2008-07-04, 09:12:04,VALID,1007.31,VALID,0,VALID,93.2097,VALID,150.643,VALID,24.1318,VALID,29,VALID,1.1668,
2008-07-04, 09:13:04,VALID,1007.32,VALID,0,VALID,93.1257,VALID,156.577,VALID,24.1531,VALID,72,VALID,0.574609,
2008-07-04, 09:14:04,VALID,1007.29,VALID,0,VALID,93.2097,VALID,163.214,VALID,24.192,VALID,27,VALID,0.808594,
2008-07-04, 09:15:04,VALID,1007.32,VALID,0,VALID,93.0952,VALID,170.152,VALID,24.2115,VALID,37,VALID,0.611328,
2008-07-04, 09:16:04,VALID,1007.3,VALID,0,VALID,93.4538,VALID,177.494,VALID,24.2486,VALID,20,VALID,0.584375,
2008-07-04, 09:17:04,VALID,1007.3,VALID,0,VALID,92.9655,VALID,185.338,VALID,24.2894,VALID,77,VALID,1.83008,
2008-07-04, 09:18:04,VALID,1007.31,VALID,0,VALID,93.2249,VALID,193.181,VALID,24.3088,VALID,20,VALID,0.833984,
2008-07-04, 09:19:04,VALID,1007.32,VALID,0,VALID,93.1944,VALID,201.428,VALID,24.3283,VALID,43,VALID,1.25703,
2008-07-04, 09:20:04,VALID,1007.32,VALID,0,VALID,93.2859,VALID,209.674,VALID,24.3673,VALID,29,VALID,0.446094,
2008-07-04, 09:21:04,VALID,1007.32,VALID,0,VALID,92.813,VALID,219.026,VALID,24.3867,VALID,64,VALID,1.30078,
2008-07-04, 09:22:04,VALID,1007.33,VALID,0,VALID,92.7824,VALID,227.775,VALID,24.4665,VALID,10,VALID,1.59375,
2008-07-04, 09:23:04,VALID,1007.32,VALID,0,VALID,92.2561,VALID,238.435,VALID,24.4257,VALID,15,VALID,1.89375,
2008-07-04, 09:24:04,VALID,1007.33,VALID,0,VALID,92.7062,VALID,249.396,VALID,24.4646,VALID,20,VALID,1.03477,
2008-07-04, 09:25:04,VALID,1007.32,VALID,0,VALID,92.2789,VALID,261.464,VALID,24.4841,VALID,26,VALID,1.93125,
2008-07-04, 09:26:04,VALID,1007.32,VALID,0,VALID,92.7443,VALID,276.146,VALID,24.5425,VALID,32,VALID,1.19141,
2008-07-04, 09:27:04,VALID,1007.35,VALID,0,VALID,92.6756,VALID,289.822,VALID,24.5814,VALID,34,VALID,1.00195,
2008-07-04, 09:28:04,VALID,1007.34,VALID,0,VALID,93.0723,VALID,303.499,VALID,24.6593,VALID,33,VALID,0.615625,
2008-07-04, 09:29:04,VALID,1007.31,VALID,0,VALID,92.2942,VALID,312.449,VALID,24.6788,VALID,35,VALID,2.29063,
2008-07-04, 09:30:04,VALID,1007.31,VALID,0,VALID,92.2637,VALID,326.327,VALID,24.7177,VALID,356,VALID,1.37422,
2008-07-04, 09:31:04,VALID,1007.29,VALID,0,VALID,92.2789,VALID,334.07,VALID,24.7372,VALID,11,VALID,1.81602,
2008-07-04, 09:32:04,VALID,1007.33,VALID,0,VALID,92.0882,VALID,342.417,VALID,24.7567,VALID,32,VALID,1.47852,
2008-07-04, 09:33:04,VALID,1007.3,VALID,0,VALID,92.5078,VALID,347.948,VALID,24.8151,VALID,353,VALID,0.671094,
2008-07-04, 09:34:04,VALID,1007.34,VALID,0,VALID,93.0571,VALID,346.842,VALID,24.9125,VALID,28,VALID,1.67031,
2008-07-04, 09:35:04,VALID,1007.33,VALID,0,VALID,92.6909,VALID,344.529,VALID,24.9728,VALID,340,VALID,0.953516,
2008-07-04, 09:36:04,VALID,1007.33,VALID,0,VALID,92.2103,VALID,340.104,VALID,24.9728,VALID,353,VALID,1.39336,
2008-07-04, 09:37:04,VALID,1007.34,VALID,0,VALID,91.3482,VALID,336.886,VALID,24.9338,VALID,351,VALID,1.98047,
2008-07-04, 09:38:04,VALID,1007.36,VALID,0,VALID,92.3171,VALID,333.467,VALID,25.0117,VALID,11,VALID,1.13633,
2008-07-04, 09:39:04,VALID,1007.32,VALID,0,VALID,92.4315,VALID,329.545,VALID,25.0312,VALID,29,VALID,0.957422,
2008-07-04, 09:40:04,VALID,1007.34,VALID,0,VALID,91.4703,VALID,338.897,VALID,25.0312,VALID,85,VALID,1.43867,
2008-07-04, 09:41:04,VALID,1007.35,VALID,0,VALID,91.661,VALID,328.64,VALID,25.0488,VALID,12,VALID,1.87109,
2008-07-04, 09:42:04,VALID,1007.32,VALID,0,VALID,90.982,VALID,329.042,VALID,25.0079,VALID,26,VALID,1.97422,
2008-07-04, 09:43:04,VALID,1007.31,VALID,0,VALID,91.9662,VALID,338.495,VALID,25.0682,VALID,14,VALID,0.996094,
2008-07-04, 09:44:04,VALID,1007.33,VALID,0,VALID,91.7373,VALID,349.456,VALID,25.1072,VALID,14,VALID,1.86758,
2008-07-04, 09:45:04,VALID,1007.32,VALID,0,VALID,91.2948,VALID,370.172,VALID,25.1248,VALID,356,VALID,1.0832,
2008-07-04, 09:46:04,VALID,1007.3,VALID,0,VALID,90.6387,VALID,396.419,VALID,25.1267,VALID,11,VALID,1.45391,
2008-07-04, 09:47:04,VALID,1007.34,VALID,0,VALID,90.8523,VALID,410.599,VALID,25.1675,VALID,30,VALID,1.27422,
2008-07-04, 09:48:04,VALID,1007.35,VALID,0,VALID,91.188,VALID,417.839,VALID,25.2649,VALID,55,VALID,1.04023,
2008-07-04, 09:49:04,VALID,1007.31,VALID,0,VALID,90.4404,VALID,408.386,VALID,25.3019,VALID,18,VALID,1.09141,
2008-07-04, 09:50:04,VALID,1007.36,VALID,0,VALID,89.7385,VALID,403.157,VALID,25.3214,VALID,72,VALID,1.55977,
2008-07-04, 09:51:04,VALID,1007.34,VALID,0,VALID,90.4099,VALID,400.542,VALID,25.4402,VALID,32,VALID,0.936719,
2008-07-04, 09:52:04,VALID,1007.32,VALID,0,VALID,88.5637,VALID,400.14,VALID,25.4188,VALID,41,VALID,2.02617,
2008-07-04, 09:53:04,VALID,1007.33,VALID,0,VALID,87.9457,VALID,400.341,VALID,25.4772,VALID,359,VALID,1.96484,
2008-07-04, 09:54:04,VALID,1007.34,VALID,0,VALID,87.8237,VALID,401.648,VALID,25.5571,VALID,18,VALID,1.09336,
2008-07-04, 09:55:04,VALID,1007.35,VALID,0,VALID,87.221,VALID,406.777,VALID,25.5571,VALID,32,VALID,2.32109,
2008-07-04, 09:56:04,VALID,1007.34,VALID,0,VALID,88.5713,VALID,424.577,VALID,25.5746,VALID,31,VALID,1.38203,
2008-07-04, 09:57:04,VALID,1007.37,VALID,0,VALID,88.1746,VALID,434.532,VALID,25.633,VALID,24,VALID,2.49805,
2008-07-04, 09:58:04,VALID,1007.34,VALID,0,VALID,88.64,VALID,424.577,VALID,25.672,VALID,78,VALID,1.68438,
2008-07-04, 09:59:04,VALID,1007.35,VALID,0,VALID,89.029,VALID,409.794,VALID,25.7713,VALID,81,VALID,0.988281,
2008-07-04, 10:00:04,VALID,1007.34,VALID,0,VALID,88.7162,VALID,410.196,VALID,25.8493,VALID,8,VALID,0.770312,
2008-07-04, 10:01:04,VALID,1007.34,VALID,0,VALID,88.0525,VALID,410.8,VALID,25.8473,VALID,45,VALID,0.697266,
2008-07-04, 10:02:04,VALID,1007.32,VALID,0,VALID,89.0061,VALID,411.302,VALID,25.9661,VALID,5,VALID,0.862109,
2008-07-04, 10:03:04,VALID,1007.35,VALID,0,VALID,88.0373,VALID,406.073,VALID,26.0012,VALID,43,VALID,1.33281,
2008-07-04, 10:04:04,VALID,1007.36,VALID,0,VALID,87.7321,VALID,406.475,VALID,26.0421,VALID,22,VALID,1.61914,
2008-07-04, 10:05:04,VALID,1007.32,VALID,0,VALID,87.7016,VALID,409.291,VALID,26.1025,VALID,29,VALID,1.84766,
2008-07-04, 10:06:04,VALID,1007.33,VALID,0,VALID,88.1365,VALID,411.504,VALID,26.1005,VALID,5,VALID,0.817969,
2008-07-04, 10:07:04,VALID,1007.29,VALID,0,VALID,87.7016,VALID,414.219,VALID,26.1005,VALID,26,VALID,1.16836,
2008-07-04, 10:08:04,VALID,1007.31,VALID,0,VALID,87.16,VALID,415.426,VALID,26.0226,VALID,63,VALID,1.55078,
2008-07-04, 10:09:04,VALID,1007.33,VALID,0,VALID,87.6177,VALID,416.331,VALID,25.9836,VALID,25,VALID,2.2832,
2008-07-04, 10:10:04,VALID,1007.31,VALID,0,VALID,88.0068,VALID,420.956,VALID,26.0246,VALID,53,VALID,0.600781,
2008-07-04, 10:11:04,VALID,1007.34,VALID,0,VALID,88.9299,VALID,422.364,VALID,26.12,VALID,111,VALID,0.676172,
2008-07-04, 10:12:04,VALID,1007.35,VALID,0,VALID,88.0907,VALID,422.767,VALID,26.1005,VALID,55,VALID,1.65703,
2008-07-04, 10:13:04,VALID,1007.35,VALID,0,VALID,88.2051,VALID,424.376,VALID,26.081,VALID,86,VALID,1.58125,
2008-07-04, 10:14:04,VALID,1007.35,VALID,0,VALID,87.9152,VALID,423.772,VALID,26.122,VALID,82,VALID,0.901172,
2008-07-04, 10:15:04,VALID,1007.38,VALID,0,VALID,87.4346,VALID,414.923,VALID,26.1415,VALID,76,VALID,1.49141,
2008-07-04, 10:16:04,VALID,1007.43,VALID,0,VALID,87.5567,VALID,416.934,VALID,26.1609,VALID,41,VALID,1.91602,
2008-07-04, 10:17:04,VALID,1007.39,VALID,0,VALID,87.2668,VALID,406.576,VALID,26.1999,VALID,96,VALID,1.78906,
2008-07-04, 10:18:04,VALID,1007.43,VALID,0,VALID,87.4346,VALID,387.771,VALID,26.1609,VALID,30,VALID,2.05508,
2008-07-04, 10:19:04,VALID,1007.43,VALID,0,VALID,88.5866,VALID,389.782,VALID,26.1784,VALID,26,VALID,1.2918,
2008-07-04, 10:20:04,VALID,1007.48,VALID,0,VALID,87.8771,VALID,384.955,VALID,26.1784,VALID,44,VALID,1.14141,
2008-07-04, 10:21:04,VALID,1007.43,VALID,0,VALID,88.3119,VALID,379.424,VALID,26.1999,VALID,60,VALID,0.719531,
2008-07-04, 10:22:04,VALID,1007.45,VALID,0,VALID,87.9915,VALID,365.446,VALID,26.2389,VALID,101,VALID,1.51094,
2008-07-04, 10:23:04,VALID,1007.51,VALID,0,VALID,87.5872,VALID,352.071,VALID,26.1999,VALID,104,VALID,1.53281,
2008-07-04, 10:24:04,VALID,1007.45,VALID,0,VALID,87.4193,VALID,340.204,VALID,26.1999,VALID,26,VALID,1.14336,
2008-07-04, 10:25:04,VALID,1007.44,VALID,0,VALID,87.7169,VALID,325.723,VALID,26.2389,VALID,86,VALID,1.67852,
2008-07-04, 10:26:04,VALID,1007.44,VALID,0,VALID,87.015,VALID,307.421,VALID,26.2778,VALID,90,VALID,1.71602,
2008-07-04, 10:27:04,VALID,1007.44,VALID,0,VALID,86.3742,VALID,292.739,VALID,26.2194,VALID,71,VALID,2.29844,
2008-07-04, 10:28:04,VALID,1007.44,VALID,0,VALID,86.954,VALID,281.073,VALID,26.2369,VALID,72,VALID,0.55,
2008-07-04, 10:29:04,VALID,1007.42,VALID,0,VALID,87.343,VALID,270.213,VALID,26.2798,VALID,69,VALID,1.03008,
2008-07-04, 10:30:04,VALID,1007.43,VALID,0,VALID,87.8084,VALID,260.659,VALID,26.2973,VALID,19,VALID,1.06016,
2008-07-04, 10:31:04,VALID,1007.42,VALID,0,VALID,86.9616,VALID,251.91,VALID,26.2584,VALID,58,VALID,0.975781,
2008-07-04, 10:32:04,VALID,1007.45,VALID,0,VALID,86.687,VALID,244.368,VALID,26.2778,VALID,26,VALID,1.60156,
2008-07-04, 10:33:04,VALID,1007.47,VALID,0,VALID,86.7175,VALID,238.032,VALID,26.2369,VALID,37,VALID,1.53828,
2008-07-04, 10:34:04,VALID,1007.47,VALID,0,VALID,86.5878,VALID,231.999,VALID,26.2584,VALID,41,VALID,0.754687,
2008-07-04, 10:35:04,VALID,1007.48,VALID,0,VALID,87.9457,VALID,226.87,VALID,26.2953,VALID,9,VALID,0.671484,
2008-07-04, 10:36:04,VALID,1007.49,VALID,0,VALID,85.9088,VALID,223.35,VALID,26.2739,VALID,11,VALID,1.97148,
2008-07-04, 10:37:04,VALID,1007.49,VALID,0,VALID,86.2598,VALID,221.138,VALID,26.2174,VALID,17,VALID,1.9582,
2008-07-04, 10:38:04,VALID,1007.48,VALID,0,VALID,86.3284,VALID,220.937,VALID,26.1979,VALID,11,VALID,0.987109,
2008-07-04, 10:39:04,VALID,1007.5,VALID,0,VALID,86.3589,VALID,222.144,VALID,26.1784,VALID,74,VALID,0.959766,
2008-07-04, 10:40:04,VALID,1007.49,VALID,0,VALID,86.3971,VALID,224.959,VALID,26.1784,VALID,54,VALID,1.4125,
2008-07-04, 10:41:04,VALID,1007.48,VALID,0,VALID,86.7175,VALID,228.68,VALID,26.1784,VALID,26,VALID,1.23125,
2008-07-04, 10:42:04,VALID,1007.48,VALID,0,VALID,85.7257,VALID,232.703,VALID,26.118,VALID,54,VALID,1.8543,
2008-07-04, 10:43:04,VALID,1007.5,VALID,0,VALID,85.4053,VALID,236.625,VALID,26.1395,VALID,26,VALID,1.66562,
2008-07-04, 10:44:04,VALID,1007.49,VALID,0,VALID,85.3901,VALID,239.641,VALID,26.159,VALID,38,VALID,0.933594,
2008-07-04, 10:45:04,VALID,1007.48,VALID,0,VALID,85.268,VALID,242.357,VALID,26.159,VALID,3,VALID,2.19883,
2008-07-04, 10:46:04,VALID,1007.46,VALID,0,VALID,85.9622,VALID,244.267,VALID,26.1375,VALID,15,VALID,1.4,
2008-07-04, 10:47:04,VALID,1007.49,VALID,0,VALID,85.6189,VALID,245.675,VALID,26.1375,VALID,18,VALID,1.8125,
2008-07-04, 10:48:04,VALID,1007.47,VALID,0,VALID,85.6647,VALID,247.888,VALID,26.159,VALID,28,VALID,1.53437,
2008-07-04, 10:49:04,VALID,1007.48,VALID,0,VALID,86.3208,VALID,250.703,VALID,26.159,VALID,350,VALID,0.9125,
2008-07-04, 10:50:04,VALID,1007.43,VALID,0,VALID,85.4206,VALID,254.022,VALID,26.1804,VALID,109,VALID,1.63281,
2008-07-04, 10:51:04,VALID,1007.45,VALID,0,VALID,85.8249,VALID,257.642,VALID,26.1415,VALID,40,VALID,1.47773,
2008-07-04, 10:52:04,VALID,1007.44,VALID,0,VALID,87.0379,VALID,262.469,VALID,26.1629,VALID,36,VALID,0.801953,
2008-07-04, 10:53:04,VALID,1007.43,VALID,0,VALID,87.0608,VALID,268.201,VALID,26.1415,VALID,62,VALID,1.34531,
2008-07-04, 10:54:04,VALID,1007.44,VALID,0,VALID,87.0532,VALID,274.537,VALID,26.1415,VALID,41,VALID,0.583984,
2008-07-04, 10:55:04,VALID,1007.38,VALID,0,VALID,85.68,VALID,281.576,VALID,26.1415,VALID,77,VALID,1.24023,
2008-07-04, 10:56:04,VALID,1007.38,VALID,0,VALID,87.1523,VALID,288.213,VALID,26.1999,VALID,21,VALID,0.951563,
2008-07-04, 10:57:04,VALID,1007.38,VALID,0,VALID,86.1072,VALID,294.649,VALID,26.1999,VALID,1,VALID,1.31445,
2008-07-04, 10:58:04,VALID,1007.37,VALID,0,VALID,86.3971,VALID,300.583,VALID,26.2194,VALID,12,VALID,0.731641,
2008-07-04, 10:59:04,VALID,1007.37,VALID,0,VALID,86.7175,VALID,304.605,VALID,26.2389,VALID,14,VALID,0.653906,
2008-07-04, 11:00:04,VALID,1007.37,VALID,0,VALID,83.9863,VALID,306.114,VALID,26.2389,VALID,32,VALID,1.82344,
2008-07-04, 11:01:04,VALID,1007.35,VALID,0,VALID,84.055,VALID,304.706,VALID,26.2389,VALID,75,VALID,0.945313,
2008-07-04, 11:02:04,VALID,1007.35,VALID,0,VALID,85.1002,VALID,302.393,VALID,26.2584,VALID,20,VALID,1.39648,
2008-07-04, 11:03:04,VALID,1007.39,VALID,0,VALID,85.535,VALID,298.471,VALID,26.2389,VALID,43,VALID,0.84375,
2008-07-04, 11:04:04,VALID,1007.37,VALID,0,VALID,84.3373,VALID,294.247,VALID,26.2389,VALID,16,VALID,1.42734,
2008-07-04, 11:05:04,VALID,1007.39,VALID,0,VALID,85.4511,VALID,290.828,VALID,26.2759,VALID,76,VALID,1.03633,
2008-07-04, 11:06:04,VALID,1007.36,VALID,0,VALID,84.1466,VALID,288.213,VALID,26.2369,VALID,25,VALID,1.19492,
2008-07-04, 11:07:04,VALID,1007.39,VALID,0,VALID,84.0855,VALID,286.705,VALID,26.2369,VALID,330,VALID,0.731641,
2008-07-04, 11:08:04,VALID,1007.34,VALID,0,VALID,83.2463,VALID,285.8,VALID,26.2759,VALID,25,VALID,1.82969,
2008-07-04, 11:09:04,VALID,1007.32,VALID,0,VALID,84.6272,VALID,285.599,VALID,26.2369,VALID,39,VALID,1.03945,
2008-07-04, 11:10:04,VALID,1007.35,VALID,0,VALID,84.4975,VALID,285.8,VALID,26.2759,VALID,53,VALID,1.05195,
2008-07-04, 11:11:04,VALID,1007.31,VALID,0,VALID,83.9024,VALID,287.208,VALID,26.2564,VALID,63,VALID,1.58633,
2008-07-04, 11:12:04,VALID,1007.29,VALID,0,VALID,83.7575,VALID,289.118,VALID,26.2349,VALID,25,VALID,1.89258,
2008-07-04, 11:13:04,VALID,1007.31,VALID,0,VALID,84.9552,VALID,292.437,VALID,26.2369,VALID,80,VALID,0.927344,
2008-07-04, 11:14:04,VALID,1007.27,VALID,0,VALID,84.1923,VALID,297.365,VALID,26.2369,VALID,88,VALID,1.64102,
2008-07-04, 11:15:04,VALID,1007.27,VALID,0,VALID,86.2521,VALID,304.002,VALID,26.2564,VALID,27,VALID,0.5625,
2008-07-04, 11:16:04,VALID,1007.25,VALID,0,VALID,84.3983,VALID,311.846,VALID,26.2953,VALID,20,VALID,1.39922,
2008-07-04, 11:17:04,VALID,1007.27,VALID,0,VALID,83.7422,VALID,320.595,VALID,26.2369,VALID,12,VALID,1.18555,
2008-07-04, 11:18:04,VALID,1007.25,VALID,0,VALID,85.6723,VALID,330.249,VALID,26.2564,VALID,8,VALID,1.10273,
2008-07-04, 11:19:04,VALID,1007.27,VALID,0,VALID,84.5356,VALID,341.109,VALID,26.2349,VALID,94,VALID,1.34844,
2008-07-04, 11:20:04,VALID,1007.25,VALID,0,VALID,85.3443,VALID,351.568,VALID,26.2953,VALID,38,VALID,1.05,
2008-07-04, 11:21:04,VALID,1007.22,VALID,0,VALID,84.4975,VALID,360.92,VALID,26.3343,VALID,23,VALID,0.888672,
2008-07-04, 11:22:04,VALID,1007.22,VALID,0,VALID,84.2381,VALID,369.368,VALID,26.3343,VALID,41,VALID,0.870703,
2008-07-04, 11:23:04,VALID,1007.23,VALID,0,VALID,83.7956,VALID,375.904,VALID,26.3538,VALID,44,VALID,0.885547,
2008-07-04, 11:24:04,VALID,1007.2,VALID,0,VALID,84.3296,VALID,380.932,VALID,26.3733,VALID,14,VALID,1.14727,
2008-07-04, 11:25:04,VALID,1007.18,VALID,0,VALID,85.3672,VALID,386.665,VALID,26.4901,VALID,22,VALID,1.3543,
2008-07-04, 11:26:04,VALID,1007.18,VALID,0,VALID,84.116,VALID,394.006,VALID,26.5896,VALID,35,VALID,0.940234,
2008-07-04, 11:27:04,VALID,1007.17,VALID,0,VALID,84.0245,VALID,401.548,VALID,26.6265,VALID,91,VALID,0.535937,
2008-07-04, 11:28:04,VALID,1007.14,VALID,0,VALID,84.1771,VALID,413.716,VALID,26.646,VALID,38,VALID,0.783984,
2008-07-04, 11:29:04,VALID,1007.17,VALID,0,VALID,84.734,VALID,424.376,VALID,26.685,VALID,10,VALID,1.23438,
2008-07-04, 11:30:04,VALID,1007.11,VALID,0,VALID,83.376,VALID,440.466,VALID,26.6655,VALID,79,VALID,1.59453,
2008-07-04, 11:31:04,VALID,1007.08,VALID,0,VALID,82.6971,VALID,460.779,VALID,26.6655,VALID,10,VALID,0.775,
2008-07-04, 11:32:04,VALID,1007.11,VALID,0,VALID,83.4065,VALID,495.574,VALID,26.7045,VALID,31,VALID,1.27227,
2008-07-04, 11:33:04,VALID,1007.1,VALID,0,VALID,83.727,VALID,519.709,VALID,26.7239,VALID,24,VALID,1.35625,
2008-07-04, 11:34:04,VALID,1007.09,VALID,0,VALID,80.027,VALID,519.408,VALID,26.7455,VALID,17,VALID,1.45,
2008-07-04, 11:35:04,VALID,1007.07,VALID,0,VALID,80.9577,VALID,525.743,VALID,26.7824,VALID,79,VALID,1.66289,
2008-07-04, 11:36:04,VALID,1007.06,VALID,0,VALID,82.636,VALID,528.961,VALID,26.8819,VALID,24,VALID,1.78672,
2008-07-04, 11:37:04,VALID,1007.05,VALID,0,VALID,81.3391,VALID,530.168,VALID,26.9772,VALID,57,VALID,1.24375,
2008-07-04, 11:38:04,VALID,1007.03,VALID,0,VALID,80.0193,VALID,517.195,VALID,26.9752,VALID,55,VALID,1.47539,
2008-07-04, 11:39:04,VALID,1007,VALID,0,VALID,80.8509,VALID,474.054,VALID,27.0162,VALID,122,VALID,0.725,
2008-07-04, 11:40:04,VALID,1006.94,VALID,0,VALID,81.0111,VALID,440.265,VALID,27.0942,VALID,49,VALID,0.802344,
2008-07-04, 11:41:04,VALID,1006.94,VALID,0,VALID,78.9818,VALID,440.265,VALID,27.0726,VALID,101,VALID,2.22695,
2008-07-04, 11:42:04,VALID,1006.94,VALID,0,VALID,81.2247,VALID,453.036,VALID,27.0942,VALID,33,VALID,1.17695,
2008-07-04, 11:43:04,VALID,1006.9,VALID,0,VALID,80.0804,VALID,401.85,VALID,27.1331,VALID,47,VALID,1.00391,
2008-07-04, 11:44:04,VALID,1006.89,VALID,0,VALID,78.3257,VALID,403.66,VALID,27.0162,VALID,72,VALID,1.61094,
2008-07-04, 11:45:04,VALID,1006.86,VALID,0,VALID,79.8591,VALID,401.85,VALID,26.9772,VALID,73,VALID,0.976172,
2008-07-04, 11:46:04,VALID,1006.83,VALID,0,VALID,81.0492,VALID,421.459,VALID,26.9988,VALID,47,VALID,1.01836,
2008-07-04, 11:47:04,VALID,1006.8,VALID,0,VALID,81.5146,VALID,407.38,VALID,26.9578,VALID,85,VALID,1.04531,
2008-07-04, 11:48:04,VALID,1006.81,VALID,0,VALID,81.6748,VALID,408.386,VALID,26.9967,VALID,66,VALID,1.13477,
2008-07-04, 11:49:04,VALID,1006.78,VALID,0,VALID,80.9729,VALID,392.095,VALID,26.9967,VALID,107,VALID,1.39219,
2008-07-04, 11:50:04,VALID,1006.76,VALID,0,VALID,80.2635,VALID,377.312,VALID,26.9208,VALID,82,VALID,2.13398,
2008-07-04, 11:51:04,VALID,1006.75,VALID,0,VALID,82.2164,VALID,369.066,VALID,26.8019,VALID,92,VALID,1.79102,
2008-07-04, 11:52:04,VALID,1006.77,VALID,0,VALID,82.2241,VALID,360.92,VALID,26.7649,VALID,68,VALID,1.46055,
2008-07-04, 11:53:04,VALID,1006.73,VALID,0,VALID,81.0187,VALID,348.451,VALID,26.7045,VALID,67,VALID,1.61016,
2008-07-04, 11:54:04,VALID,1006.71,VALID,0,VALID,83.0098,VALID,331.053,VALID,26.7649,VALID,83,VALID,1.47656,
2008-07-04, 11:55:04,VALID,1006.71,VALID,0,VALID,84.2381,VALID,324.416,VALID,26.7434,VALID,83,VALID,1.07305,
2008-07-04, 11:56:04,VALID,1006.71,VALID,0,VALID,84.0397,VALID,319.69,VALID,26.7045,VALID,104,VALID,1.65898,
2008-07-04, 11:57:04,VALID,1006.65,VALID,0,VALID,84.2457,VALID,306.818,VALID,26.685,VALID,97,VALID,1.30391,
2008-07-04, 11:58:04,VALID,1006.65,VALID,0,VALID,82.4453,VALID,300.884,VALID,26.646,VALID,25,VALID,1.34102,
2008-07-04, 11:59:04,VALID,1006.64,VALID,0,VALID,83.7041,VALID,298.27,VALID,26.6655,VALID,92,VALID,0.582812,
2008-07-04, 12:00:04,VALID,1006.63,VALID,0,VALID,82.2088,VALID,300.08,VALID,26.5876,VALID,50,VALID,1.98711,
2008-07-04, 12:01:04,VALID,1006.59,VALID,0,VALID,82.2622,VALID,298.873,VALID,26.5896,VALID,53,VALID,1.48281,
2008-07-04, 12:02:04,VALID,1006.58,VALID,0,VALID,82.3156,VALID,298.27,VALID,26.5486,VALID,69,VALID,1.19531,
2008-07-04, 12:03:04,VALID,1006.58,VALID,0,VALID,83.8261,VALID,298.169,VALID,26.5486,VALID,58,VALID,1.11133,
2008-07-04, 12:04:04,VALID,1006.57,VALID,0,VALID,82.2012,VALID,298.974,VALID,26.4901,VALID,28,VALID,1.45742,
2008-07-04, 12:05:04,VALID,1006.53,VALID,0,VALID,82.7428,VALID,300.382,VALID,26.4922,VALID,84,VALID,1.27656,
2008-07-04, 12:06:04,VALID,1006.53,VALID,0,VALID,82.4911,VALID,301.488,VALID,26.4512,VALID,26,VALID,1.78789,